FW3162 Easton MD US current weather conditions

sailwx.info

Wind from 352

Air temperature -4.4° C
Dewpoint -8.0° C

Last reported at 2020-Jan-22 07:05 UTC.
Time now 2020-Jan-22 07:34 UTC

Location: N 38°47' W 076°03'.
View on Google Maps.

See reports from other nearby stations

  
Tides and Currents Weather Stations Pressure Air Temp Water Temp Dewpoint Dewpoint Depression Visibility Wind Speed Wind Dir Waves Ship Positions
date/time (UTC)wind fromknots sea level pressurealtimeterstation pressurevisibilityair tempwater tempwave heightnotes
2020-Jan-22 07:05 352 -4.4
2020-Jan-22 07:00 352 -4.4
2020-Jan-22 06:55 352 -4.4
2020-Jan-22 06:50 071 -3.9
2020-Jan-22 06:46 071 -3.9
2020-Jan-22 06:40 336 -3.9
2020-Jan-22 06:35 002 -3.9
2020-Jan-22 06:31 060 -3.9
2020-Jan-22 06:25 339 -3.9
2020-Jan-22 06:20 351 -3.9
2020-Jan-22 06:16 034 -3.9
2020-Jan-22 06:05 043 -3.9
2020-Jan-22 06:00 357 -3.9
2020-Jan-22 05:55 001 -3.9
2020-Jan-22 05:50 002 -3.9
2020-Jan-22 05:46 053 -4.4
2020-Jan-22 05:40 359 -4.4
2020-Jan-22 05:35 006 -5.0
2020-Jan-22 05:30 003 -5.0
2020-Jan-22 05:25 003 -5.0
2020-Jan-22 05:20 002 -5.0
2020-Jan-22 05:05 002 -5.0
2020-Jan-22 05:00 002 -5.0
2020-Jan-22 04:55 002 -5.0
2020-Jan-22 04:45 003 -5.0
2020-Jan-22 04:40 002 -5.0
2020-Jan-22 04:35 003 -5.0
2020-Jan-22 04:25 003 -5.0
2020-Jan-22 04:20 002 -5.6
2020-Jan-22 04:05 003 -6.1
2020-Jan-22 04:00 003 -6.1
2020-Jan-22 03:55 002 -6.1
2020-Jan-22 03:50 003 -6.1
2020-Jan-22 03:45 002 -6.1
2020-Jan-22 03:40 002 -5.6
2020-Jan-22 03:35 002 -5.6
2020-Jan-22 03:25 002 -5.0
2020-Jan-22 03:20 003 -5.0
2020-Jan-22 03:05 002 -5.0
2020-Jan-22 02:55 003 -5.0
2020-Jan-22 02:50 002 -4.4
2020-Jan-22 02:40 001 -4.4
2020-Jan-22 02:35 001 -4.4
2020-Jan-22 02:25 001 -3.9
2020-Jan-22 02:20 001 -3.9
2020-Jan-22 02:05 001 -3.3
2020-Jan-22 02:00 343 -3.3
2020-Jan-22 01:55 344 -3.3
2020-Jan-22 01:50 345 -3.3
2020-Jan-22 01:45 015 -3.3
2020-Jan-22 01:40 018 -2.8
2020-Jan-22 01:35 018 -2.8
2020-Jan-22 01:25 015 -2.8
2020-Jan-22 01:20 280 -2.8
2020-Jan-22 01:05 077 -2.8
2020-Jan-22 00:55 009 -2.8
2020-Jan-22 00:50 054 -2.8
2020-Jan-22 00:45 072 -2.8
2020-Jan-22 00:40 050 -2.8
2020-Jan-22 00:35 056 -2.8
2020-Jan-22 00:25 053 -2.8
2020-Jan-22 00:20 022 -3.3
2020-Jan-22 00:05 046 -3.3
2020-Jan-22 00:00 046 -3.3
2020-Jan-21 23:55 046 -3.3
2020-Jan-21 23:50 046 -3.3
2020-Jan-21 23:40 046 -3.3
2020-Jan-21 23:35 046 -3.3
2020-Jan-21 23:30 046 -3.3
2020-Jan-21 23:25 046 -3.3
2020-Jan-21 23:20 046 -2.8
2020-Jan-21 23:05 046 -2.2
2020-Jan-21 22:55 046 -1.7
2020-Jan-21 22:50 046 -1.7
2020-Jan-21 22:45 046 -1.7
2020-Jan-21 22:40 050 -1.7
2020-Jan-21 22:35 012 -1.1
2020-Jan-21 22:25 044 -0.6
2020-Jan-21 22:20 279 -0.6
2020-Jan-21 22:15 270 -0.6
2020-Jan-21 22:05 038 -0.6
2020-Jan-21 22:00 002 0 gusting 4 -0.6
2020-Jan-21 21:55 071 -0.0
2020-Jan-21 21:50 050 -0.0
2020-Jan-21 21:40 089 -0.0
2020-Jan-21 21:35 055 0 gusting 5 -0.0
2020-Jan-21 21:25 287 0 gusting 6 0.6
2020-Jan-21 21:20 003 0 gusting 3 0.6
2020-Jan-21 21:15 084 1 gusting 7 0.6
2020-Jan-21 21:05 105 0 gusting 5 1.1
2020-Jan-21 20:55 082 0 gusting 6 1.1
2020-Jan-21 20:50 275 2 gusting 6 1.1
2020-Jan-21 20:45 264 0 gusting 6 1.1
2020-Jan-21 20:40 034 0 gusting 7 1.1
2020-Jan-21 20:30 297 1 gusting 6 1.1
2020-Jan-21 20:25 109 1 gusting 4 1.1
2020-Jan-21 20:15 307 0 gusting 8 1.1
2020-Jan-21 20:06 345 2 gusting 6 1.1
2020-Jan-21 20:00 037 1 gusting 6 1.1
2020-Jan-21 19:55 260 1 gusting 7 1.1
2020-Jan-21 19:50 073 1 gusting 7 1.1
2020-Jan-21 19:45 014 1 gusting 9 1.1
2020-Jan-21 19:40 115 0 gusting 9 1.1
2020-Jan-21 19:35 129 0 gusting 6 1.1
2020-Jan-21 19:30 089 1 gusting 6 1.1
2020-Jan-21 19:25 015 2 gusting 6 1.1
2020-Jan-21 19:19 327 0 gusting 6 0.6
2020-Jan-21 19:05 012 1 gusting 6 0.6
2020-Jan-21 19:02 034 2 gusting 6 0.6
2020-Jan-21 18:57 034 2 gusting 6 0.6
2020-Jan-21 18:50 047 0 gusting 6 0.6
2020-Jan-21 18:47 297 1 gusting 6 0.6
2020-Jan-21 18:41 063 1 gusting 7 -0.0
2020-Jan-21 18:36 029 3 gusting 7 -0.0
2020-Jan-21 18:32 198 1 gusting 6 -0.0
2020-Jan-21 18:25 052 2 gusting 7 -0.0
2020-Jan-21 18:20 018 2 gusting 7 -0.0
2020-Jan-21 18:17 054 1 gusting 7 0.6
2020-Jan-21 18:05 105 0 gusting 6 -0.0
2020-Jan-21 18:02 306 2 gusting 8 -0.0
2020-Jan-21 17:55 123 1 gusting 6 0.6
2020-Jan-21 17:51 359 0 gusting 6 -0.0
2020-Jan-21 17:47 040 2 gusting 6 -0.0
2020-Jan-21 17:40 022 0 gusting 7 -0.0
2020-Jan-21 17:36 113 1 gusting 8 -0.0
2020-Jan-21 17:33 217 1 gusting 8 -0.0
2020-Jan-21 17:25 046 0 gusting 6 -0.0
2020-Jan-21 17:21 265 0 gusting 5 -0.0
2020-Jan-21 17:17 050 1 gusting 8 -0.0
2020-Jan-21 17:05 292 1 gusting 6 -0.6
2020-Jan-21 17:02 041 1 gusting 6 -0.6
2020-Jan-21 16:55 042 3 gusting 6 -0.6
2020-Jan-21 16:50 002 1 gusting 6 -0.6
2020-Jan-21 16:46 071 1 gusting 6 -0.6
2020-Jan-21 16:40 048 1 gusting 6 -0.6
2020-Jan-21 16:36 067 0 gusting 6 -1.1
2020-Jan-21 16:31 013 1 gusting 6 -1.1
2020-Jan-21 16:25 340 2 gusting 7 -1.1
2020-Jan-21 16:21 314 1 gusting 7 -1.1
2020-Jan-21 16:17 066 2 gusting 6 -1.1
2020-Jan-21 16:05 041 2 gusting 6 -1.1
2020-Jan-21 16:01 053 3 gusting 6 -1.1
2020-Jan-21 15:55 020 2 gusting 6 -1.1
2020-Jan-21 15:51 096 1 gusting 6 -1.7
2020-Jan-21 15:47 030 2 gusting 6 -1.7
2020-Jan-21 15:40 015 2 gusting 6 -1.7
2020-Jan-21 15:35 110 2 gusting 6 -1.7
2020-Jan-21 15:31 032 2 gusting 9 -1.7
2020-Jan-21 15:25 027 2 gusting 9 -1.7
2020-Jan-21 15:20 098 3 gusting 6 -1.7
2020-Jan-21 15:17 079 0 gusting 7 -1.7
2020-Jan-21 15:05 075 1 gusting 6 -2.2
2020-Jan-21 15:01 018 2 gusting 6 -2.2
2020-Jan-21 14:55 034 1 gusting 7 -2.2
2020-Jan-21 14:50 266 2 gusting 6 -2.2
2020-Jan-21 14:46 080 1 gusting 6 -2.2
2020-Jan-21 14:40 063 1 gusting 6 -2.2
2020-Jan-21 14:35 011 2 gusting 6 -2.8
2020-Jan-21 14:32 046 1 gusting 5 -2.8
2020-Jan-21 14:25 008 0 gusting 6 -2.8
2020-Jan-21 14:20 057 2 gusting 8 -2.8
2020-Jan-21 14:16 001 2 gusting 8 -2.8
2020-Jan-21 14:06 346 1 gusting 10 -3.3
2020-Jan-21 14:01 053 2 gusting 8 -3.3
2020-Jan-21 13:55 073 1 gusting 8 -3.3
2020-Jan-21 13:50 082 3 gusting 6 -3.3
2020-Jan-21 13:46 082 0 gusting 7 -3.3
2020-Jan-21 13:35 030 -3.9
2020-Jan-21 13:30 229 0 gusting 6 -3.9
2020-Jan-21 13:25 050 1 gusting 6 -3.9
2020-Jan-21 13:20 077 -4.4
2020-Jan-21 13:15 060 -4.4
2020-Jan-21 13:05 217 0 gusting 4 -5.0
2020-Jan-21 13:01 018 0 gusting 4 -5.0
2020-Jan-21 12:55 031 -5.0
2020-Jan-21 12:50 033 -5.6
2020-Jan-21 12:45 060 0 gusting 3 -5.6
2020-Jan-21 12:40 309 -6.1
2020-Jan-21 12:35 037 -6.1
2020-Jan-21 12:30 353 0 gusting 4 -6.1
2020-Jan-21 12:25 022 0 gusting 3 -6.1
2020-Jan-21 12:20 348 -6.7
2020-Jan-21 12:05 017 -6.7
2020-Jan-21 11:55 293 -6.7
2020-Jan-21 11:50 040 -6.7
2020-Jan-21 11:45 340 -6.7
2020-Jan-21 11:40 055 -6.7
2020-Jan-21 11:35 047 -7.2
2020-Jan-21 11:30 359 -7.2
2020-Jan-21 11:25 018 -7.2
2020-Jan-21 11:20 045 -7.2
2020-Jan-21 11:05 062 -6.7
2020-Jan-21 11:00 304 -6.7
2020-Jan-21 10:55 045 -6.7
2020-Jan-21 10:50 021 -6.7
2020-Jan-21 10:45 018 -6.7
2020-Jan-21 10:35 308 -6.7
2020-Jan-21 10:20 063 -6.7
2020-Jan-21 10:15 326 -6.7
2020-Jan-21 10:05 005 -6.7
2020-Jan-21 10:00 065 -6.1
2020-Jan-21 09:55 019 -6.1
2020-Jan-21 09:50 350 -6.1
2020-Jan-21 09:45 070 -6.1
2020-Jan-21 09:40 005 -6.1
2020-Jan-21 09:35 029 -6.1
2020-Jan-21 09:30 015 -6.1
2020-Jan-21 09:21 032 -5.6
2020-Jan-21 09:18 051 0 gusting 4 -5.6
2020-Jan-21 09:05 010 -5.6
2020-Jan-21 09:01 290 -5.6
2020-Jan-21 08:55 325 -5.6
2020-Jan-21 08:50 328 -5.6
2020-Jan-21 08:47 017 0 gusting 5 -5.6
2020-Jan-21 08:40 056 -5.6
2020-Jan-21 08:35 019 -5.6
2020-Jan-21 08:32 027 0 gusting 3 -5.6
2020-Jan-21 08:25 068 0 gusting 3 -5.0
2020-Jan-21 08:21 021 -5.0
2020-Jan-21 08:18 051 -5.0
2020-Jan-21 08:06 063 -5.0
2020-Jan-21 08:01 262 -5.0
2020-Jan-21 07:55 039 -5.0
2020-Jan-21 07:50 349 -5.0
2020-Jan-21 07:46 039 -5.0
2020-Jan-21 07:41 004 0 gusting 4 -5.0
2020-Jan-21 07:36 006 -4.4
2020-Jan-21 07:32 065 -4.4
2020-Jan-21 07:25 037 -4.4
2020-Jan-21 07:20 034 -4.4
2020-Jan-21 07:16 318 -4.4
2020-Jan-21 07:05 068 0 gusting 4 -4.4
2020-Jan-21 07:01 041 -4.4
2020-Jan-21 06:55 063 -4.4
2020-Jan-21 06:50 013 0 gusting 6 -4.4
2020-Jan-21 06:47 050 -4.4
2020-Jan-21 06:41 060 -4.4
2020-Jan-21 06:35 041 -4.4
2020-Jan-21 06:31 077 -4.4
2020-Jan-21 06:25 046 0 gusting 4 -4.4
2020-Jan-21 06:20 045 -4.4
2020-Jan-21 06:16 352 -4.4
2020-Jan-21 06:05 046 -4.4
2020-Jan-21 06:01 021 0 gusting 4 -3.9
2020-Jan-21 05:55 128 0 gusting 4 -4.4
2020-Jan-21 05:50 070 -4.4
2020-Jan-21 05:46 011 -3.9
2020-Jan-21 05:40 304 -3.9
2020-Jan-21 05:35 358 -3.9
2020-Jan-21 05:33 020 0 gusting 5 -3.9
2020-Jan-21 05:25 070 -3.9
2020-Jan-21 05:20 062 -3.9
2020-Jan-21 05:16 065 -3.9
2020-Jan-21 05:05 025 -3.9
2020-Jan-21 05:01 051 -3.9
2020-Jan-21 04:55 065 0 gusting 5 -3.9
2020-Jan-21 04:50 042 0 gusting 3 -3.9
2020-Jan-21 04:47 329 -3.9
2020-Jan-21 04:40 028 0 gusting 3 -3.9
2020-Jan-21 04:35 355 -3.9
2020-Jan-21 04:32 358 0 gusting 4 -3.9
2020-Jan-21 04:25 073 0 gusting 4 -3.9
2020-Jan-21 04:20 329 -3.9
2020-Jan-21 04:15 046 -3.9
2020-Jan-21 04:05 083 -3.9
2020-Jan-21 04:01 024 0 gusting 4 -3.9
2020-Jan-21 03:55 318 0 gusting 4 -3.9
2020-Jan-21 03:50 008 -3.9
2020-Jan-21 03:45 054 0 gusting 3 -3.9
2020-Jan-21 03:40 059 -3.9
2020-Jan-21 03:35 043 -3.9
2020-Jan-21 03:31 006 -3.9
2020-Jan-21 03:25 066 -3.9
2020-Jan-21 03:20 085 -3.9
2020-Jan-21 03:16 040 -3.9
2020-Jan-21 03:05 027 -3.9
2020-Jan-21 03:00 065 -3.9
2020-Jan-21 02:55 057 -3.9
2020-Jan-21 02:50 029 -3.9
2020-Jan-21 02:46 043 -3.9
2020-Jan-21 02:40 034 -3.9
2020-Jan-21 02:35 057 -3.9
2020-Jan-21 02:30 035 -3.9
2020-Jan-21 02:25 013 -3.9
2020-Jan-21 02:20 023 -3.9
2020-Jan-21 02:16 321 -3.9
2020-Jan-21 02:05 020 -3.9
2020-Jan-21 02:02 008 -3.9
2020-Jan-21 01:55 326 -3.9
2020-Jan-21 01:50 044 -3.9
2020-Jan-21 01:46 001 -3.9
2020-Jan-21 01:40 356 -3.9
2020-Jan-21 01:35 033 -3.9
2020-Jan-21 01:31 030 -3.3
2020-Jan-21 01:25 047 -3.3
2020-Jan-21 01:20 018 0 gusting 3 -3.3
2020-Jan-21 01:16 014 0 gusting 3 -3.3
2020-Jan-21 01:05 021 -3.3
2020-Jan-21 01:00 025 -3.3
2020-Jan-21 00:55 006 0 gusting 5 -3.3
2020-Jan-21 00:50 028 -3.3
2020-Jan-21 00:45 022 0 gusting 4 -3.3
2020-Jan-21 00:40 032 -3.3
2020-Jan-21 00:35 073 -3.3
2020-Jan-21 00:31 007 -3.3
2020-Jan-21 00:25 086 -3.3
2020-Jan-21 00:20 067 -3.3
2020-Jan-21 00:15 085 -3.3
2020-Jan-21 00:05 029 -3.3
2020-Jan-21 00:01 020 -3.3
2020-Jan-20 23:55 077 -2.8
2020-Jan-20 23:50 359 -2.8
2020-Jan-20 23:46 356 -2.8
2020-Jan-20 23:40 010 -2.8
2020-Jan-20 23:30 090 -2.8
2020-Jan-20 23:25 048 0 gusting 3 -2.8
2020-Jan-20 23:20 029 0 gusting 4 -2.8
2020-Jan-20 23:16 347 0 gusting 4 -2.8
2020-Jan-20 23:05 018 0 gusting 5 -2.2
2020-Jan-20 22:55 006 0 gusting 2 -2.2
2020-Jan-20 22:46 323 -2.2
2020-Jan-20 22:40 027 0 gusting 3 -2.2
2020-Jan-20 22:35 079 -2.2
2020-Jan-20 22:25 016 -1.7
2020-Jan-20 22:15 039 0 gusting 3 -1.7
2020-Jan-20 22:05 036 -1.1
2020-Jan-20 22:00 053 1 gusting 6 -1.1
2020-Jan-20 21:55 052 2 gusting 6 -1.1
2020-Jan-20 21:45 024 1 gusting 6 -1.1
2020-Jan-20 21:40 037 1 gusting 6 -1.1
2020-Jan-20 21:30 038 1 gusting 8 -0.6
2020-Jan-20 21:20 240 2 gusting 6 -0.6
2020-Jan-20 21:05 060 4 gusting 11 -0.0
2020-Jan-20 21:00 075 2 gusting 9 0.6
2020-Jan-20 20:55 077 1 gusting 9 0.6
2020-Jan-20 20:50 314 1 gusting 6 0.6
2020-Jan-20 20:45 273 1 gusting 6 0.6
2020-Jan-20 20:40 073 1 gusting 6 -0.0
2020-Jan-20 20:35 042 1 gusting 6 0.6
2020-Jan-20 20:25 041 2 gusting 8 0.6
2020-Jan-20 20:20 039 1 gusting 8 0.6
2020-Jan-20 20:05 058 2 gusting 7 0.6
2020-Jan-20 20:00 054 2 gusting 8 0.6
2020-Jan-20 19:55 032 3 gusting 9 0.6
2020-Jan-20 19:50 293 2 gusting 9 0.6
2020-Jan-20 19:45 046 2 gusting 8 0.6
2020-Jan-20 19:40 303 3 gusting 7 0.6
2020-Jan-20 19:30 189 2 gusting 13 0.6
2020-Jan-20 19:25 025 3 gusting 13 -0.0
2020-Jan-20 19:20 046 2 gusting 8 0.6
2020-Jan-20 19:15 100 2 gusting 8 0.6
2020-Jan-20 19:05 270 1 gusting 6 0.6
2020-Jan-20 19:00 039 3 gusting 8 0.6
2020-Jan-20 18:55 341 1 gusting 8 0.6
2020-Jan-20 18:50 349 2 gusting 7 -0.0
2020-Jan-20 18:45 058 2 gusting 8 -0.0
2020-Jan-20 18:40 319 2 gusting 8 0.6
2020-Jan-20 18:35 060 2 gusting 8 -0.0
2020-Jan-20 18:30 259 2 gusting 10 -0.0
2020-Jan-20 18:25 050 2 gusting 10 -0.0
2020-Jan-20 18:20 086 2 gusting 9 -0.0
2020-Jan-20 18:05 056 3 gusting 11 -0.0
2020-Jan-20 18:00 222 3 gusting 11 -0.0
2020-Jan-20 17:55 207 2 gusting 13 -0.0
2020-Jan-20 17:50 001 3 gusting 13 -0.0
2020-Jan-20 17:45 062 2 gusting 10 -0.0
2020-Jan-20 17:40 037 4 gusting 10 -0.6
2020-Jan-20 17:35 316 2 gusting 9 -0.6
2020-Jan-20 17:30 062 3 gusting 9 -0.6
2020-Jan-20 17:21 324 1 gusting 8 -0.6
2020-Jan-20 17:16 245 2 gusting 8 -0.6
2020-Jan-20 17:10 042 2 gusting 7 -0.6
2020-Jan-20 17:06 044 2 gusting 7 -0.6
2020-Jan-20 17:02 044 3 gusting 8 -0.6
2020-Jan-20 16:56 346 3 gusting 8 -1.1
2020-Jan-20 16:50 356 3 gusting 7 -1.1
2020-Jan-20 16:47 341 2 gusting 11 -1.1
2020-Jan-20 16:40 079 3 gusting 11 -1.1
2020-Jan-20 16:36 057 4 gusting 11 -1.1
2020-Jan-20 16:32 051 2 gusting 8 -1.1
2020-Jan-20 16:25 085 1 gusting 7 -1.1
2020-Jan-20 16:20 101 1 gusting 7 -1.1
2020-Jan-20 16:18 001 2 gusting 6 -1.1
2020-Jan-20 16:10 112 2 gusting 7 -1.1
2020-Jan-20 16:05 030 2 gusting 9 -1.7
2020-Jan-20 16:02 027 3 gusting 9 -1.7
2020-Jan-20 15:56 002 4 gusting 9 -1.7
2020-Jan-20 15:51 060 2 gusting 7 -1.7
2020-Jan-20 15:47 032 3 gusting 9 -1.7
2020-Jan-20 15:41 304 2 gusting 10 -1.7
2020-Jan-20 15:35 280 3 gusting 10 -1.7
2020-Jan-20 15:31 007 1 gusting 8 -1.7
2020-Jan-20 15:25 011 4 gusting 10 -1.7
2020-Jan-20 15:20 069 3 gusting 10 -1.7
2020-Jan-20 15:10 147 2 gusting 8 -2.2
2020-Jan-20 15:06 113 3 gusting 9 -2.2
2020-Jan-20 15:03 285 3 gusting 9 -2.2
2020-Jan-20 14:55 284 4 gusting 9 -2.2
2020-Jan-20 14:50 061 2 gusting 7 -2.2
2020-Jan-20 14:46 032 3 gusting 7 -2.2
2020-Jan-20 14:40 032 4 gusting 10 -2.2
2020-Jan-20 14:35 017 4 gusting 10 -2.2
2020-Jan-20 14:31 217 4 gusting 10 -2.2
2020-Jan-20 14:25 265 3 gusting 7 -2.2
2020-Jan-20 14:21 136 1 gusting 5 -2.2
2020-Jan-20 14:16 283 1 gusting 6 -2.2
2020-Jan-20 14:10 051 1 gusting 8 -2.8
2020-Jan-20 14:05 063 2 gusting 8 -2.8
2020-Jan-20 14:01 039 3 gusting 12 -2.8
2020-Jan-20 13:55 049 5 gusting 12 -2.8
2020-Jan-20 13:50 030 4 gusting 12 -2.8
2020-Jan-20 13:46 065 1 gusting 6 -2.8
2020-Jan-20 13:40 023 1 gusting 9 -2.8
2020-Jan-20 13:35 125 1 gusting 9 -3.3
2020-Jan-20 13:32 037 2 gusting 7 -3.3
2020-Jan-20 13:25 042 2 gusting 7 -3.3
2020-Jan-20 13:20 321 1 gusting 6 -3.3
2020-Jan-20 13:15 124 1 gusting 6 -3.3
2020-Jan-20 13:10 044 1 gusting 6 -3.3
2020-Jan-20 13:05 064 0 gusting 7 -3.3
2020-Jan-20 13:00 082 1 gusting 7 -3.9
2020-Jan-20 12:55 062 1 gusting 6 -3.9
2020-Jan-20 12:50 003 2 gusting 8 -3.9
2020-Jan-20 12:46 059 1 gusting 8 -3.9
2020-Jan-20 12:40 035 1 gusting 9 -4.4
2020-Jan-20 12:35 075 0 gusting 9 -3.9
2020-Jan-20 12:30 141 1 gusting 9 -4.4
2020-Jan-20 12:25 014 1 gusting 6 -4.4
2020-Jan-20 12:20 075 0 gusting 7 -3.9
2020-Jan-20 12:15 056 2 gusting 7 -3.9
2020-Jan-20 12:10 006 1 gusting 8 -3.9
2020-Jan-20 12:05 066 3 gusting 8 -3.9
2020-Jan-20 11:55 049 1 gusting 12 -3.9
2020-Jan-20 11:50 205 2 gusting 11 -3.9
2020-Jan-20 11:40 090 1 gusting 7 -3.9
2020-Jan-20 11:35 293 1 gusting 7 -3.9
2020-Jan-20 11:25 068 1 gusting 8 -3.9
2020-Jan-20 11:20 262 1 gusting 8 -3.9
2020-Jan-20 11:15 043 1 gusting 11 -3.9
2020-Jan-20 11:10 304 2 gusting 11 -3.9
2020-Jan-20 11:05 214 2 gusting 10 -3.9
2020-Jan-20 10:55 269 3 gusting 13 -3.9
2020-Jan-20 10:45 226 1 gusting 13 -3.9
2020-Jan-20 10:40 250 2 gusting 11 -3.9
2020-Jan-20 10:35 270 1 gusting 11 -3.9
2020-Jan-20 10:30 131 1 gusting 8 -3.9
2020-Jan-20 10:25 308 0 gusting 10 -3.9
2020-Jan-20 10:20 217 3 gusting 10 -3.3
2020-Jan-20 10:15 268 3 gusting 9 -3.3
2020-Jan-20 10:10 061 2 gusting 6 -3.3
2020-Jan-20 10:02 336 1 gusting 11 -3.3
2020-Jan-20 09:55 096 5 gusting 11 -3.3
2020-Jan-20 09:50 025 2 gusting 10 -3.3
2020-Jan-20 09:47 336 2 gusting 10 -3.3
2020-Jan-20 09:40 330 2 gusting 9 -3.3
2020-Jan-20 09:33 269 2 gusting 9 -3.3
2020-Jan-20 09:25 281 1 gusting 11 -3.3
2020-Jan-20 09:20 054 4 gusting 11 -3.3
2020-Jan-20 09:19 181 3 gusting 14 -3.3
2020-Jan-20 09:11 274 2 gusting 12 -3.3
2020-Jan-20 09:06 286 4 gusting 12 -3.3
2020-Jan-20 09:01 017 3 gusting 12 -3.9
2020-Jan-20 08:55 187 2 gusting 12 -3.9
2020-Jan-20 08:50 259 2 gusting 12 -3.3
2020-Jan-20 08:47 072 1 gusting 11 -3.3
2020-Jan-20 08:41 021 2 gusting 10 -3.9
2020-Jan-20 08:34 024 2 gusting 7 -3.9
2020-Jan-20 08:25 280 -3.9
2020-Jan-20 08:20 330 1 gusting 11 -3.3
2020-Jan-20 08:16 266 1 gusting 5 -3.9
2020-Jan-20 08:10 066 1 gusting 7 -3.9
2020-Jan-20 08:06 087 0 gusting 10 -3.3
2020-Jan-20 08:01 276 2 gusting 10 -3.3
2020-Jan-20 07:55 264 1 gusting 9 -3.3
2020-Jan-20 07:50 066 3 gusting 10 -3.3
2020-Jan-20 07:48 281 2 gusting 10 -3.3
2020-Jan-20 07:40 049 1 gusting 13 -3.3
2020-Jan-20 07:31 293 2 gusting 11 -3.3
2020-Jan-20 07:25 092 5 gusting 11 -3.3
2020-Jan-20 07:20 297 3 gusting 11 -3.3
2020-Jan-20 07:17 082 2 gusting 10 -3.3
2020-Jan-20 07:10 250 1 gusting 9 -3.3
2020-Jan-20 07:05 279 1 gusting 11 -3.3
2020-Jan-20 07:01 164 0 gusting 12 -3.3